This demonstration page uses our WeatherBlox Daily Observations layout. Learn more.

Left ArrowRight Arrow

41.12389, -100.76542

Hourly Observations for July 12, 2018

Temp ( °F °C ) Dew Point ( °F °C ) Humidity (%) Winds ( mph kmh ) Pressure ( in mb ) Visibility ( mi km ) Precip ( " mm )
12:53 am 00:53 Clear 81 27.2 67 19.4 62 62 S 12 19 29.92 1013 10 16 0.00 0.00
1:53 am 01:53 Clear 80 26.7 67 19.4 64 64 SSW 16 26 29.92 1013 10 16 0.00 0.00
2:53 am 02:53 Clear 78 25.6 67 19.4 69 69 SSW 13 20 29.91 1013 10 16 0.00 0.00
3:53 am 03:53 Clear 77 25 67 19.4 71 71 S 12 19 29.90 1013 10 16 0.00 0.00
4:53 am 04:53 Clear 75 23.9 67 19.4 76 76 SSW 9 15 29.90 1013 10 16 0.00 0.00
5:53 am 05:53 Clear 74 23.3 67 19.4 79 79 SSW 9 15 29.91 1013 10 16 0.00 0.00
6:53 am 06:53 Sunny 74 23.3 67 19.4 79 79 S 9 15 29.92 1013 10 16 0.00 0.00
7:53 am 07:53 Sunny 76 24.4 68 20 77 77 S 6 9 29.93 1014 10 16 0.00 0.00
8:53 am 08:53 Sunny 80 26.7 68 20 67 67 S 8 13 29.94 1014 10 16 0.00 0.00
9:53 am 09:53 Sunny 83 28.3 69 20.6 63 63 SW 6 9 29.96 1015 10 16 0.00 0.00
10:53 am 10:53 Sunny 86 30 71 21.7 61 61 S 5 7 29.96 1015 10 16 0.00 0.00
11:53 am 11:53 Sunny 89 31.7 70 21.1 53 53 SSW 8 13 29.95 1014 10 16 0.00 0.00
12:53 pm 12:53 Sunny 93 33.9 70 21.1 47 47 S 9 15 29.93 1014 10 16 0.00 0.00
1:53 pm 13:53 Sunny 94 34.4 70 21.1 46 46 SSE 12 19 29.92 1013 10 16 0.00 0.00
2:53 pm 14:53 Mostly Sunny 94 34.4 67 19.4 41 41 SSE 15 24 29.90 1013 10 16 0.00 0.00
3:49 pm 15:49 Partly Cloudy with Nearby Thunderstorms 97 36 68 20 39 39 SSE 14 22 29.71 1006 10 16 0.00 0.00
3:53 pm 15:53 Partly Cloudy with Nearby Thunderstorms 97 36.1 68 20 39 39 SSE 16 26 29.87 1012 10 16 0.00 0.00
4:04 pm 16:04 Mostly Sunny 96 35.6 67 19.4 39 39 S 14 22 29.71 1006 10 16 0.00 0.00
4:53 pm 16:53 Partly Cloudy 92 33.3 67 19.4 44 44 SSE 10 17 29.86 1011 10 16 0.00 0.03
5:53 pm 17:53 Mostly Cloudy 87 30.6 67 19.4 51 51 NW 7 11 29.87 1012 10 16 0.00 0.00
6:08 pm 18:08 Mostly Cloudy with Nearby Thunderstorms 84 28.9 68 20 59 59 W 9 15 29.80 1009 10 16 0.00 0.00
6:29 pm 18:29 Cloudy with Nearby Thunderstorms 78 25.6 68 20 71 71 N 21 33 29.83 1010 10 16 0.00 0.00
6:42 pm 18:42 Mostly Cloudy 78 25.6 68 20 71 71 N 18 30 29.83 1010 10 16 0.00 0.00
6:53 pm 18:53 Mostly Cloudy 77 25 68 20 74 74 NNE 14 22 29.90 1013 10 16 0.00 0.00
7:16 pm 19:16 Mostly Cloudy 76 24.4 69 20.6 79 79 N 12 19 29.85 1011 10 16 0.00 0.00
7:53 pm 19:53 Mostly Sunny 76 24.4 69 20.6 79 79 E 6 9 29.90 1013 10 16 0.00 0.00
8:53 pm 20:53 Sunny 77 25 69 20.6 77 77 SE 10 17 29.88 1012 10 16 0.00 0.00
9:53 pm 21:53 Clear 74 23.3 69 20.6 85 85 E 3 6 29.91 1013 10 16 0.00 0.00
10:53 pm 22:53 Cloudy 74 23.3 68 20 82 82 NNW 18 30 30.00 1016 10 16 0.00 0.00
11:00 pm 23:00 Cloudy 73 22.8 68 20 84 84 NNW 22 35 29.97 1015 10 16 0.00 0.00
11:21 pm 23:21 Cloudy with Nearby Thunderstorms 71 21.7 68 20 90 90 NW 20 31 30.03 1017 5 8 0.02 0.51
11:40 pm 23:40 Cloudy with Nearby Thunderstorms 68 20 67 19.4 96 96 N 20 31 30.03 1017 9 14 0.12 3.05
11:53 pm 23:53 Cloudy with Nearby Thunderstorms 68 20 67 19.4 96 96 N 17 28 30.01 1016 10 16 0.12 3.05

Powered by AerisWeather